Погода в Вохменке

Россия / Курганская область     55°35′00″N   64°35′27″E
темп.,
°C
ветер,
м/с
пор.,
м/с
влажн.,
%
обл.,
%
осадки,
мм/ч
давл.,
гПа
погр.,
м
21 апреля, ср
ср2123:00+2з35600 0.0 102965
02:00+1сз36700 0.0 102890
05:000сз36810 0.0 103099
08:00+5сз36640 0.0 1030263
11:00+10сз45481 0.0 1031981
14:00+12ссз45409 0.0 10311800
17:00+13ссз343950 0.0 10311868
20:00+9всв235780 0.0 103365
22 апреля, чт
чт2223:00+6вюв377310 0.0 1035157
02:00+4юв37775 0.0 1035126
05:00+3юв36815 0.0 1037115
08:00+7юв47655 0.0 1037305
11:00+12ююв55475 0.0 10371040
14:00+15ю5637100 0.0 10361911
17:00+15ю5636100 0.0 10362034
20:00+11ююв3954100 0.0 1036204
23 апреля, пт
пт2323:00+8ююв4966100 0.0 1036229
02:00+7ююв41068100 0.0 1035229
05:00+6ююв41072100 0.0 1035244
08:00+8ю51066100 0.0 1035397
11:00+11ююв5652100 0.0 1035553
14:00+14ю694095 0.0 10341734
17:00+14ю6737100 0.0 10331874
20:00+10ююв4947100 0.0 1033261
24 апреля, сб
сб2423:00+9ююв41147100 0.0 1032367
02:00+8ююв41146100 0.0 1031362
05:00+6юв2554100 0.0 1030123
08:00+7ююв4852100 0.0 1029371
11:00+9юв4750100 0.0 1028611
14:00+11ююв5840100 0.0 10261362
17:00+11ююв5843100 0.0 10251030
20:00+9юв51143100 0.0 1024704
25 апреля, вс
вс2523:00+9юв51243100 0.0 1022614
02:00+7вюв41052100 0.0 1021363
05:00+7юв4105399 0.0 1019344
08:00+9юв51051100 0.0 1018474
11:00+12ююв6837100 0.0 10161176
14:00+13ююз7942100 0.0 10161726
17:00+9ююз4669100 0.0 1017711
20:00+7зюз22725 0.0 101831